Regional Weather Roundup
Issued by NWS

Home | Current Version | Previous Version | Graphics & Text | Print | Product List | Glossary Off
Versions: 1 2 3 4 5 6 7 8 9 10 11 12 13 14 15 16 17 18 19 20 21 22 23 24 25 26 27 28 29 30 31 32 33 34 35 36 37 38 39 40 41 42 43 44 45 46 47 48 49 50

000
ASUS43 KFSD 041110
RWRSD

WEATHER ROUNDUP FOR SOUTH DAKOTA
NATIONAL WEATHER SERVICE SIOUX FALLS SD
600 AM CDT TUE AUG 04 2015

NOTE: "FAIR" INDICATES FEW OR NO CLOUDS BELOW 12,000 FEET WITH NO
SIGNIFICANT WEATHER AND/OR OBSTRUCTIONS TO VISIBILITY.


SDZ001>005-009-010-012>017-041200-
NORTHWEST AND NORTH CENTRAL SOUTH DAKOTA

CITY           SKY/WX    TMP DP  RH WIND       PRES   REMARKS
BUFFALO          N/A     59  52  77 NE9       29.87
FAITH            N/A     65  55  70 SE15G24   29.92F
MOBRIDGE       MOCLDY    61  57  87 E10       29.97R
$$

SDZ012>016-024>037-041>051-057-063-072>074-041200-
SOUTHWEST AND SOUTH CENTRAL SOUTH DAKOTA

CITY           SKY/WX    TMP DP  RH WIND       PRES   REMARKS
RAPID CTY ARPT MOCLDY    65  58  78 SW6       29.95R
PIERRE         CLOUDY    65  58  78 SE5       29.96S
CUSTER         MOCLDY    58  54  86 NE10      30.06R
ELLSWORTH AFB  MOCLDY    65  59  79 S8        29.94S
PHILIP         CLOUDY    65  61  87 E13       29.93R
PINE RIDGE     MOCLDY    65  61  87 E12       29.94R
WINNER         LGT RAIN  65  62  90 SW6       30.02R
$$

SDZ004>011-016>023-039-040-041200-
NORTHEAST SOUTH DAKOTA

CITY           SKY/WX    TMP DP  RH WIND       PRES   REMARKS
ABERDEEN       PTCLDY    54  49  83 CALM      30.00R
WATERTOWN      CLEAR     57  50  77 CALM      30.01R
BROOKINGS      MOCLDY    54  48  82 CALM      30.03R
SISSETON         N/A     51  48  89 W5        29.98R
$$

SDZ017-020-022-023-036>040-048>070-041200-
SOUTHEAST SOUTH DAKOTA

CITY           SKY/WX    TMP DP  RH WIND       PRES   REMARKS
SIOUX FALLS    CLOUDY    59  54  83 E3        30.01R
HURON          CLOUDY    59  54  83 SE5       29.99R
CHAMBERLAIN    LGT RAIN  66  63  89 S10       30.00R
MITCHELL       CLOUDY    62  59  90 SE3       30.00R
YANKTON        CLOUDY    64  63  94 E5        29.98R
$$

ABBREVIATIONS USED IN REMARKS
   TC - TEMPERATURE IN CELSIUS
  WCI - WIND CHILL INDEX
   HX - HEAT INDEX
  VSB - VISIBILITY



USA.gov is the U.S. government's official web portal to all federal, state and local government web resources and services.